Regional Weather Roundup
Issued by NWS Newport/Morehead, NC

Current Version | Previous Version | Text Only | Print | Product List | Glossary On
Versions: 1 2 3 4 5 6 7 8 9 10 11 12 13 14 15 16 17 18 19 20 21 22 23 24 25 26 27 28 29 30 31 32 33 34 35 36 37 38 39 40 41 42 43 44 45 46 47 48 49 50
000
ASUS42 KMHX 231013
RWRMHX
WEATHER ROUNDUP FOR EASTERN NORTH CAROLINA
NATIONAL WEATHER SERVICE NEWPORT/MOREHEAD CITY NC
600 AM EDT SAT MAY 23 2015

NOTE: "FAIR" INDICATES FEW OR NO CLOUDS BELOW 12,000 FEET
WITH NO SIGNIFICANT WEATHER AND/OR OBSTRUCTIONS TO VISIBILITY

NCZ015>017-031-032-045>047-102-103-231100-
NORTH COAST

CITY           SKY/WX    TMP DP  RH WIND       PRES   REMARKS
EDENTON        PTCLDY    59  52  78 NW3       30.32R
ELIZABETH CITY PTCLDY    55  52  89 CALM      30.32R
KITTY HAWK     MOSUNNY   64  53  67 W5        30.31R
MANTEO         PTCLDY    64  55  70 W5        30.32R

$$

NCZ045>047-081-094-103-104-231100-
CENTRAL COAST

CITY           SKY/WX    TMP DP  RH WIND       PRES   REMARKS
FRISCO         CLEAR     60  51  72 NW5       30.32R
SWANQUARTER      N/A     59 N/A N/A NW1       30.30R

$$

NCZ095-097-098-100-101-231100-
SOUTHERN COAST

CITY           SKY/WX    TMP DP  RH WIND       PRES   REMARKS
BEAUFORT       CLEAR     54  54 100 CALM      30.32R
CEDAR ISLAND     N/A     59 N/A N/A SW3       30.36R
JACKSONVILLE   CLEAR     53  51  93 CALM      30.32R
PINEY ISLAND   SUNNY    N/A N/A N/A SW5       30.32R
WILMINGTON     CLEAR     55  53  93 CALM      30.32R


$$

NCZ011>013-027>030-043-044-078>080-089-090>093-098-231100-
COASTAL PLAIN

CITY           SKY/WX    TMP DP  RH WIND       PRES   REMARKS
AHOSKIE        PTCLDY    49  47  94 CALM      30.35R
CLINTON        CLEAR     52  51  98 CALM      30.34R
ELIZABETHTOWN  CLEAR     53  53  99 CALM      30.32R
GOLDSBORO      CLEAR     55  51  86 CALM      30.32R
GREENVILLE     CLEAR     52  52 100 CALM      30.34R FOG
HAVELOCK       CLEAR     53  49  86 CALM      30.33R
KENANSVILLE    CLEAR     48  47  97 CALM      30.34R
KINSTON        CLEAR     49  49  97 CALM      30.34R
NEW BERN       CLEAR     52  49  89 CALM      30.34R
RICHLANDS      CLEAR     46  43  87 CALM      30.33R
ROCKY MOUNT    PTCLDY    51  50  96 CALM      30.34R
WASHINGTON     CLEAR     52  51  95 CALM      30.33R
WHITEVILLE     CLEAR     51  50  95 CALM      30.32R FOG

$$

AMZ130-135-150-152-154-156-158-170-250-252-270-ANZ085-086-088-633-658-670-231100-
MARINE OBSERVATIONS

STATION/POSITION TIME  TEMP    WIND        PRES    WAVE   SWELL
                       AIR SEA DIR/SP/G            HT/PER HT/PER
                 (UTC) (F)     (DEG/KT/KT) (MB)    (FT/S) (FT/S)
CHESAPEAKE LIGHT 0900   63     310/  7/  8 1026.8
64 E VA BEACH    0950   61 59  320/ 12/ 12 1026.2    2/ 8   2/ 8
DUCK             0900   67 64  240/  7/  8 1024.6
2 E DUCK         0911      65                N/A     1/ 8
OREGON INLET     0900   66 69  240/  5/  7 1025.6
13E OREGON INLT  1000      62                N/A     3/ 9
HATTERAS CG      0900   69 72  310/  6/  7 1025.3
DIAMOND BUOY     0950   69 77  340/  8/ 10 1026.4    3/ 9   3/ 9
CAPE LOOKOUT     1000   66     360/  1/  1 1026.6
BEAUFORT LAB     0900   62 73   CALM  /  2 1025.1
27 SE WRIGHTSVLE 0900   67      80/  8/ 12   N/A
5 SE WRIGHTSVLE  0908   70 76   60/ 10/ 14 1025.8
225 S CAPE HAT   0950   71 74   50/ 16/ 19 1024.4    6/ 5   3/ 8
41 SE CHARLESTON 0950   72 75   50/ 16/ 19 1024.5    4/ 4   2/ 9

$$



USA.gov is the U.S. government's official web portal to all federal, state and local government web resources and services.